Location: Coed Ely
(51.5661°N, 3.4150°W)
Time: 19:44:23
(UTC+00:00)

Cosmos 2227 Rocket - Pass Details

Date: 28 January 2021
Orbit: 837 x 846 km, 71.0° (Epoch: 27 February)

Event Time Altitude Azimuth Distance (km) Brightness Sun altitude
Rises 17:49:24 0° 290° (WNW) 3,410 6.3 -8.4°
Reaches altitude 10° 17:53:34 10° 319° (NW) 2,478 5.0 -9.0°
Maximum altitude 17:55:52 12° 343° (NNW) 2,311 4.5 -9.4°
Drops below altitude 10° 17:58:12 10° 8° (N) 2,482 4.4 -9.7°
Enters shadow 18:01:13 - 31° (NNE) 3,105 4.7 -10.2°
